Asheville, NC

10:11 AM EDT on September 21, 2017 (GMT -0400)
Asheville Regional

Weather History for KAVL - March, 2009

Change the Weather History Date:

Monday, March 30, 2009

  Actual Average Record
Temperature  
Mean Temperature 50 °F 51 °F  
Max Temperature 63 °F 63 °F 83 °F (1985)
Min Temperature 36 °F 39 °F 15 °F (1964)
Degree Days  
Heating Degree Days 15 14  
Month to date heating degree days 523 540  
Since 1 July heating degree days 3819 3757  
Cooling Degree Days 0 0  
Month to date cooling degree days 0 0  
Year to date cooling degree days 0 0  
Moisture  
Dew Point 23 °F    
Average Humidity 44    
Maximum Humidity 75    
Minimum Humidity 13    
Precipitation  
Precipitation 0.00 in 0.13 in 1.56 in (1981)
Month to date precipitation 4.06 3.71  
Year to date precipitation 8.33 11.14  
Snow  
Snow 0.00 in 0.10 in 3.80 in (1915)
Month to date snowfall 5.1 1.9  
Since 1 July snowfall 6.1 9.2  
Snow Depth 0.00 in    
Sea Level Pressure  
Sea Level Pressure 29.98 in    
Wind  
Wind Speed 11 mph (NNW)    
Max Wind Speed 26 mph    
Max Gust Speed 33 mph    
Visibility 10 miles    
Events      
T = Trace of Precipitation, MM = Missing Value Source: NWS Daily Summary

Daily Weather History Graph

Daily Weather History Graph

Search for Another Location

Airport or City:

Trip Planner

Search our weather history database for the weather conditions in past years. The results will help you decide how hot, cold, wet, or windy it might be!

Date:

Astronomy

Mar. 30, 2009 Rise Set
Actual Time 7:19 AM EDT 7:50 PM EDT
Civil Twilight 6:53 AM EDT 8:15 PM EDT
Nautical Twilight 6:23 AM EDT 8:45 PM EDT
Astronomical Twilight 5:53 AM EDT 9:16 PM EDT
Moon 9:28 AM EDT (3/30) No Moon Set
Length of Visible Light 13h 22m
Length of Day
12h 30m
Waxing Crescent, 19% of the Moon is Illuminated
Mar 30
Waxing Crescent
Apr 2
First Quarter
Apr 9
Full
Apr 17
Last Quarter
Apr 24
New

Hourly Weather History & Observations

Time (EDT) Temp. Windchill Dew Point Humidity Pressure Visibility Wind Dir Wind Speed Gust Speed Precip Events Conditions
12:54 AM 42.1 °F 35.2 °F 32.0 °F 67% 29.86 in 10.0 mi NW 12.7 mph - N/A   Overcast
1:54 AM 39.9 °F 31.8 °F 28.9 °F 65% 29.88 in 10.0 mi NNW 15.0 mph - N/A   Partly Cloudy
2:54 AM 39.9 °F 32.5 °F 27.0 °F 60% 29.87 in 10.0 mi North 12.7 mph 18.4 mph N/A   Clear
3:54 AM 39.0 °F 31.0 °F 28.0 °F 65% 29.90 in 10.0 mi NNW 13.8 mph - N/A   Clear
4:54 AM 37.9 °F 29.6 °F 27.0 °F 65% 29.94 in 10.0 mi NNW 13.8 mph 24.2 mph N/A   Clear
5:54 AM 37.9 °F 29.6 °F 28.9 °F 70% 29.94 in 10.0 mi North 13.8 mph 23.0 mph N/A   Clear
6:54 AM 37.0 °F 28.1 °F 28.0 °F 70% 29.96 in 10.0 mi North 15.0 mph 26.5 mph N/A   Clear
7:54 AM 36.0 °F 25.3 °F 28.0 °F 73% 29.99 in 10.0 mi NNW 19.6 mph 28.8 mph N/A   Clear
8:54 AM 37.0 °F 25.9 °F 28.0 °F 70% 30.01 in 10.0 mi NNW 23.0 mph 33.4 mph N/A   Clear
9:54 AM 41.0 °F 31.4 °F 28.9 °F 62% 30.02 in 10.0 mi NNW 21.9 mph 28.8 mph N/A   Clear
10:54 AM 46.0 °F 37.8 °F 27.0 °F 47% 30.03 in 10.0 mi NNW 23.0 mph 29.9 mph N/A   Clear
11:54 AM 48.9 °F - 21.0 °F 33% 30.04 in 10.0 mi North 13.8 mph 21.9 mph N/A   Clear
12:54 PM 54.0 °F - 19.9 °F 26% 30.02 in 10.0 mi North 10.4 mph 18.4 mph N/A   Clear
1:54 PM 57.0 °F - 19.0 °F 23% 30.00 in 10.0 mi North 12.7 mph 17.3 mph N/A   Clear
2:54 PM 60.1 °F - 17.1 °F 19% 29.99 in 10.0 mi North 11.5 mph - N/A   Clear
3:54 PM 61.0 °F - 15.1 °F 17% 29.98 in 10.0 mi North 13.8 mph 18.4 mph N/A   Clear
4:54 PM 63.0 °F - 14.0 °F 15% 29.98 in 10.0 mi NNW 9.2 mph - N/A   Clear
5:54 PM 62.1 °F - 10.0 °F 13% 29.99 in 10.0 mi North 9.2 mph - N/A   Clear
6:54 PM 59.0 °F - 10.9 °F 15% 30.00 in 10.0 mi NW 9.2 mph - N/A   Clear
7:54 PM 57.0 °F - 10.0 °F 15% 30.00 in 10.0 mi North 6.9 mph - N/A   Clear
8:54 PM 53.1 °F - 17.1 °F 24% 30.03 in 10.0 mi Calm Calm - N/A   Clear
9:54 PM 48.9 °F - 26.1 °F 41% 30.04 in 10.0 mi Calm Calm - N/A   Clear
10:54 PM 45.0 °F - 24.1 °F 44% 30.04 in 10.0 mi Calm Calm - N/A   Clear
11:54 PM 44.1 °F - 27.0 °F 51% 30.05 in 10.0 mi Calm Calm - N/A   Clear